Orbital Elements at Epoch 2459000.5 (2020-May-31.0) TDB
Reference: JPL 17 (heliocentric ecliptic J2000)
Element | Value | Uncertainty (1-sigma) | Units |
e | .1161508696721366 | 2.8983e-08 | |
a | 2.541007558942642 | 1.265e-08 | au |
q | 2.245867321127982 | 7.6188e-08 | au |
i | 1.938610815116104 | 6.6323e-06 | deg |
node | 8.457758822351915 | 0.00011507 | deg |
peri | 66.45747912830448 | 0.00012034 | deg |
M | 350.6567888166904 | 3.4378e-05 | deg |
tp | 2459038.897330049081 (2020-Jul-08.39733005) | 0.00014135 | TDB |
period | 1479.474085137049 4.05 | 1.1048e-05 3.025e-08 | d yr |
n | .243329709939902 | 1.8171e-09 | deg/d |
Q | 2.836147796757303 | 1.412e-08 | au |
|
| | Orbit Determination Parameters
Additional Information
|